• In France
  • List of Countries
  • For 7 days
  • Water Temperature
  • Satellite Maps
  • Weather Map
  • Weather Widgets
  • user-avatar
    Login

    Hourly Weather Mendoza

    Today, 14 November, Wednesday

    Time Temperature Precipitation Wind Pressure Humidity
    00:00 +17°C° 0 mm 2 mps 698 mmHg 25%
    01:00 +16°C° 0 mm 2 mps 697 mmHg 26%
    02:00 +16°C° 0 mm 2 mps 697 mmHg 26%
    03:00 +15°C° 0 mm 1 mps 697 mmHg 27%
    04:00 +15°C° 0 mm 1 mps 697 mmHg 28%
    05:00 +17°C° 0 mm 2 mps 697 mmHg 24%
    06:00 +18°C° 0 mm 2 mps 698 mmHg 21%
    07:00 +20°C° 0 mm 2 mps 698 mmHg 18%
    08:00 +22°C° 0 mm 3 mps 698 mmHg 17%
    09:00 +23°C° 0 mm 4 mps 698 mmHg 16%
    10:00 +26°C° 0 mm 4 mps 698 mmHg 16%
    11:00 +27°C° 0 mm 4 mps 698 mmHg 15%
    12:00 +27°C° 0 mm 4 mps 697 mmHg 15%
    13:00 +28°C° 0 mm 4 mps 697 mmHg 14%
    14:00 +29°C° 0 mm 4 mps 697 mmHg 14%
    15:00 +29°C° 0 mm 4 mps 696 mmHg 14%
    16:00 +29°C° 0 mm 4 mps 696 mmHg 14%
    17:00 +28°C° 0 mm 4 mps 696 mmHg 14%
    18:00 +26°C° 0 mm 4 mps 696 mmHg 15%
    19:00 +25°C° 0 mm 3 mps 696 mmHg 16%
    20:00 +25°C° 0 mm 3 mps 696 mmHg 17%
    21:00 +23°C° 0 mm 4 mps 696 mmHg 18%
    22:00 +22°C° 0 mm 4 mps 696 mmHg 19%
    23:00 +22°C° 0 mm 3 mps 695 mmHg 20%

    Tomorrow, 15 November, Thursday

    Time Temperature Precipitation Wind Pressure Humidity
    00:00 +21°C° 0 mm 3 mps 695 mmHg 22%
    01:00 +20°C° 0 mm 2 mps 694 mmHg 24%
    02:00 +20°C° 0 mm 2 mps 694 mmHg 24%
    03:00 +19°C° 0 mm 2 mps 694 mmHg 24%
    04:00 +19°C° 0 mm 3 mps 694 mmHg 24%
    05:00 +20°C° 0 mm 3 mps 694 mmHg 23%
    06:00 +22°C° 0 mm 4 mps 695 mmHg 22%
    07:00 +25°C° 0 mm 4 mps 695 mmHg 20%
    08:00 +26°C° 0 mm 5 mps 696 mmHg 20%
    09:00 +27°C° 0 mm 5 mps 696 mmHg 20%
    10:00 +28°C° 0 mm 6 mps 696 mmHg 20%
    11:00 +29°C° 0 mm 6 mps 696 mmHg 20%
    12:00 +30°C° 0 mm 6 mps 696 mmHg 19%
    13:00 +30°C° 0 mm 6 mps 696 mmHg 19%
    14:00 +30°C° 0 mm 6 mps 695 mmHg 19%
    15:00 +30°C° 0 mm 6 mps 695 mmHg 19%
    16:00 +30°C° 0 mm 6 mps 695 mmHg 20%
    17:00 +29°C° 0 mm 6 mps 696 mmHg 24%
    18:00 +27°C° 0 mm 6 mps 696 mmHg 28%
    19:00 +26°C° 0 mm 6 mps 697 mmHg 33%
    20:00 +24°C° 0 mm 6 mps 698 mmHg 36%
    21:00 +23°C° 0 mm 5 mps 698 mmHg 40%
    22:00 +22°C° 0 mm 4 mps 699 mmHg 44%
    23:00 +21°C° 0 mm 4 mps 698 mmHg 46%

    Day after tomorrow, 16 November, Friday

    Time Temperature Precipitation Wind Pressure Humidity
    00:00 +20°C° 0 mm 4 mps 698 mmHg 48%
    01:00 +19°C° 0 mm 4 mps 697 mmHg 50%
    02:00 +19°C° 0 mm 4 mps 697 mmHg 52%
    03:00 +18°C° 0 mm 4 mps 697 mmHg 54%
    04:00 +17°C° 0 mm 4 mps 696 mmHg 55%
    05:00 +18°C° 0 mm 4 mps 696 mmHg 53%
    06:00 +19°C° 0 mm 4 mps 696 mmHg 51%
    07:00 +20°C° 0 mm 4 mps 696 mmHg 49%
    08:00 +21°C° 0 mm 4 mps 696 mmHg 45%
    09:00 +23°C° 0 mm 4 mps 696 mmHg 41%
    10:00 +25°C° 0 mm 4 mps 696 mmHg 38%
    11:00 +27°C° 0 mm 4 mps 695 mmHg 34%
    12:00 +28°C° 0 mm 3 mps 695 mmHg 31%
    13:00 +29°C° 0 mm 3 mps 694 mmHg 27%
    14:00 +30°C° 0 mm 4 mps 694 mmHg 25%
    15:00 +30°C° 0 mm 4 mps 694 mmHg 23%
    16:00 +32°C° 0 mm 4 mps 693 mmHg 21%
    17:00 +30°C° 0 mm 4 mps 693 mmHg 23%
    18:00 +28°C° 0 mm 4 mps 694 mmHg 26%
    19:00 +27°C° 0 mm 3 mps 694 mmHg 28%
    20:00 +26°C° 0 mm 4 mps 694 mmHg 28%
    21:00 +26°C° 0 mm 4 mps 694 mmHg 29%
    22:00 +25°C° 0 mm 5 mps 694 mmHg 30%
    23:00 +23°C° 0 mm 5 mps 694 mmHg 26%

    17 November, Saturday

    Time Temperature Precipitation Wind Pressure Humidity
    00:00 +23°C° 0 mm 6 mps 694 mmHg 23%
    01:00 +22°C° 0 mm 6 mps 694 mmHg 20%
    02:00 +21°C° 0 mm 6 mps 693 mmHg 20%
    03:00 +20°C° 0 mm 6 mps 693 mmHg 21%
    04:00 +19°C° 0 mm 6 mps 693 mmHg 21%
    05:00 +20°C° 0 mm 6 mps 694 mmHg 26%
    06:00 +20°C° 0 mm 7 mps 695 mmHg 32%
    07:00 +20°C° 0 mm 8 mps 696 mmHg 37%
    08:00 +21°C° 0 mm 8 mps 696 mmHg 36%
    09:00 +22°C° 0 mm 7 mps 697 mmHg 34%
    10:00 +23°C° 0 mm 7 mps 697 mmHg 33%
    11:00 +24°C° 0 mm 7 mps 697 mmHg 32%
    12:00 +24°C° 0 mm 6 mps 697 mmHg 30%
    13:00 +26°C° 0 mm 6 mps 696 mmHg 29%
    14:00 +26°C° 0 mm 6 mps 696 mmHg 29%
    15:00 +26°C° 0 mm 6 mps 696 mmHg 28%
    16:00 +24°C° 0 mm 6 mps 697 mmHg 27%
    17:00 +23°C° 0 mm 6 mps 697 mmHg 28%
    18:00 +22°C° 0 mm 5 mps 698 mmHg 29%
    19:00 +20°C° 0 mm 5 mps 699 mmHg 30%
    20:00 +19°C° 0 mm 4 mps 699 mmHg 31%
    21:00 +19°C° 0 mm 4 mps 700 mmHg 32%
    22:00 +18°C° 0 mm 3 mps 700 mmHg 33%
    23:00 +17°C° 0 mm 2 mps 699 mmHg 34%

    18 November, Sunday

    Time Temperature Precipitation Wind Pressure Humidity
    00:00 +16°C° 0 mm 2 mps 699 mmHg 36%
    01:00 +16°C° 0 mm 1 mps 698 mmHg 37%
    02:00 +15°C° 0 mm 2 mps 698 mmHg 38%
    03:00 +15°C° 0 mm 2 mps 698 mmHg 39%
    04:00 +14°C° 0 mm 2 mps 698 mmHg 40%
    05:00 +16°C° 0 mm 2 mps 699 mmHg 37%
    06:00 +17°C° 0 mm 2 mps 699 mmHg 34%
    07:00 +18°C° 0 mm 3 mps 699 mmHg 31%
    08:00 +19°C° 0 mm 3 mps 699 mmHg 28%
    09:00 +21°C° 0 mm 4 mps 699 mmHg 26%
    10:00 +22°C° 0 mm 4 mps 699 mmHg 23%
    11:00 +23°C° 0 mm 4 mps 699 mmHg 22%
    12:00 +26°C° 0 mm 4 mps 699 mmHg 21%
    13:00 +27°C° 0 mm 5 mps 698 mmHg 19%
    14:00 +27°C° 0 mm 5 mps 698 mmHg 19%
    15:00 +27°C° 0 mm 4 mps 697 mmHg 18%
    16:00 +28°C° 0 mm 4 mps 697 mmHg 18%
    17:00 +27°C° 0 mm 4 mps 697 mmHg 19%
    18:00 +26°C° 0 mm 3 mps 698 mmHg 20%
    19:00 +25°C° 0 mm 2 mps 698 mmHg 22%
    20:00 +24°C° 0 mm 2 mps 698 mmHg 23%
    21:00 +24°C° 0 mm 2 mps 698 mmHg 24%
    22:00 +23°C° 0 mm 2 mps 698 mmHg 25%
    23:00 +23°C° 0 mm 2 mps 697 mmHg 26%

    19 November, Monday

    Time Temperature Precipitation Wind Pressure Humidity
    00:00 +21°C° 0 mm 2 mps 697 mmHg 26%
    01:00 +21°C° 0 mm 1 mps 696 mmHg 27%
    02:00 +20°C° 0 mm 2 mps 696 mmHg 27%
    03:00 +20°C° 0 mm 2 mps 696 mmHg 27%
    04:00 +19°C° 0 mm 2 mps 696 mmHg 27%
    05:00 +21°C° 0 mm 3 mps 696 mmHg 26%
    06:00 +24°C° 0 mm 3 mps 697 mmHg 24%
    07:00 +26°C° 0 mm 4 mps 697 mmHg 23%
    08:00 +27°C° 0 mm 4 mps 697 mmHg 22%
    09:00 +29°C° 0 mm 5 mps 696 mmHg 20%
    10:00 +30°C° 0 mm 6 mps 696 mmHg 19%
    11:00 +32°C° 0 mm 6 mps 696 mmHg 18%
    12:00 +34°C° 0 mm 6 mps 695 mmHg 17%
    13:00 +35°C° 0 mm 6 mps 694 mmHg 16%
    14:00 +35°C° 0 mm 5 mps 694 mmHg 15%
    15:00 +35°C° 0 mm 5 mps 694 mmHg 15%
    16:00 +35°C° 0 mm 4 mps 693 mmHg 14%
    17:00 +34°C° 0 mm 4 mps 694 mmHg 16%
    18:00 +32°C° 0 mm 4 mps 694 mmHg 19%
    19:00 +30°C° 0 mm 3 mps 695 mmHg 21%
    20:00 +29°C° 0 mm 3 mps 695 mmHg 24%
    21:00 +28°C° 0 mm 4 mps 695 mmHg 27%
    22:00 +27°C° 0 mm 4 mps 695 mmHg 30%
    23:00 +26°C° 0 mm 4 mps 695 mmHg 32%
    Show more